sat.trackr.live / text

‹ back to catalog

JCSAT-12 (JCSAT-RA)

NORAD 35755 · 2009-044A

PAYLOAD ACTIVE UNKNOWN

§ Identity

Operator
Country
JPN
Launch date
2009-08-21
Launch site
FRGUI
Launch vehicle
Mass (kg)
RCS (m²)
50.12

Purposes: comms

External: N2YO · Heavens-Above · Gunter

§ Orbital elements

Epoch: 2026-05-24T18:06:13.550400Z

Period
1,436.11 min
Inclination
0.0562°
Eccentricity
0.0000739
Mean motion
1.00270539 rev/d
Perigee alt
35,783.8 km
Apogee alt
35,790.1 km
Semi-major
42,165.1 km
B*
0.0000e+0
RAAN
87.1332°
Arg perigee
238.6967°
Mean anomaly
320.1004°
Rev number
6,137

§ Raw data

JCSAT-12 (JCSAT-RA)1 35755U 09044A   26144.75432350 -.00000331  00000+0  00000+0 0  99942 35755   0.0562  87.1332 0000739 238.6967 320.1004  1.00270539 61378

JSON: /api/v1/satellites/35755 · /tle

For live sub-satellite position, see the globe view (requires WebGL).

§ Visibility from observer

Set your observer location to see the next 7 days of passes ≥ 10°. The values pass through the URL so the page stays shareable.

No JS? Fill the form by hand. The geolocation button needs JavaScript.